EA8CHC Sevilla ES current weather conditions

sailwx.info

Wind from 215 at 6 knots gusting 12

Air temperature 32.2° C
Dewpoint 18.8° C

Last reported at 2019-Jul-15 14:12 UTC.
Time now 2019-Jul-16 05:59 UTC

Location: N 37°26' W 006°03'.
View on Google Maps.

See reports from other nearby stations

  
Tides and Currents Weather Stations Pressure Air Temp Water Temp Dewpoint Dewpoint Depression Visibility Wind Speed Wind Dir Waves Ship Positions
date/time (UTC)wind fromknots sea level pressurealtimeterstation pressurevisibilityair tempwater tempwave heightnotes
2019-Jul-15 14:12 215 6 gusting 12 32.2
2019-Jul-15 14:07 227 5 gusting 13 32.2
2019-Jul-15 14:02 207 6 gusting 13 32.2
2019-Jul-15 13:57 157 6 gusting 16 32.2
2019-Jul-15 13:52 174 7 gusting 16 31.7
2019-Jul-15 13:47 135 7 gusting 16 31.7
2019-Jul-15 13:42 163 6 gusting 14 31.7
2019-Jul-15 13:37 146 6 gusting 12 31.7
2019-Jul-15 13:32 184 6 gusting 12 31.7
2019-Jul-15 13:27 182 5 gusting 12 31.7
2019-Jul-15 13:22 152 6 gusting 12 31.7
2019-Jul-15 13:17 215 5 gusting 12 31.1
2019-Jul-15 13:12 201 5 gusting 12 31.1
2019-Jul-15 13:07 196 6 gusting 12 31.1
2019-Jul-15 13:02 179 5 gusting 13 31.1
2019-Jul-15 12:57 195 4 gusting 13 31.1
2019-Jul-15 12:52 175 5 gusting 13 31.1
2019-Jul-15 12:47 198 4 gusting 10 30.6
2019-Jul-15 12:42 200 4 gusting 13 30.6
2019-Jul-15 12:37 162 4 gusting 13 30.6
2019-Jul-15 12:32 147 5 gusting 13 30.0
2019-Jul-15 12:27 184 5 gusting 10 30.0
2019-Jul-15 12:22 152 4 gusting 10 30.6
2019-Jul-15 12:17 144 3 gusting 9 30.0
2019-Jul-15 12:12 182 3 gusting 8 30.0
2019-Jul-15 12:07 211 3 gusting 8 30.0
2019-Jul-15 12:02 292 3 gusting 10 29.4
2019-Jul-15 11:57 202 4 gusting 10 29.4
2019-Jul-15 11:52 182 4 gusting 11 29.4
2019-Jul-15 11:47 212 4 gusting 11 28.9
2019-Jul-15 11:42 175 4 gusting 11 28.9
2019-Jul-15 11:37 152 4 gusting 9 28.9
2019-Jul-15 11:32 155 3 gusting 8 28.3
2019-Jul-15 11:27 155 3 gusting 10 28.3
2019-Jul-15 11:22 169 4 gusting 10 28.3
2019-Jul-15 11:17 193 5 gusting 9 28.3
2019-Jul-15 11:12 171 5 gusting 9 27.8
2019-Jul-15 11:07 154 3 gusting 9 27.8
2019-Jul-15 11:02 187 2 gusting 7 27.8
2019-Jul-15 10:57 212 2 gusting 7 27.8
2019-Jul-15 10:52 195 2 gusting 10 27.2
2019-Jul-15 10:47 191 2 gusting 10 27.2
2019-Jul-15 10:42 186 3 gusting 8 26.7
2019-Jul-15 10:37 219 3 gusting 11 26.7
2019-Jul-15 10:32 229 3 gusting 11 26.7
2019-Jul-15 10:27 164 3 gusting 11 26.1
2019-Jul-15 10:22 202 2 gusting 7 26.1
2019-Jul-15 10:17 203 2 gusting 7 26.1
2019-Jul-15 10:12 229 3 gusting 7 25.6
2019-Jul-15 10:07 227 3 gusting 6 25.6
2019-Jul-15 10:02 211 2 gusting 6 25.6
2019-Jul-15 09:57 181 0 gusting 8 25.6
2019-Jul-15 09:52 193 1 gusting 8 25.0
2019-Jul-15 09:47 140 2 gusting 5 24.4
2019-Jul-15 09:42 161 1 gusting 5 24.4
2019-Jul-15 09:37 161 1 gusting 6 24.4
2019-Jul-15 09:32 160 1 gusting 6 24.4
2019-Jul-15 09:27 163 2 gusting 6 23.9
2019-Jul-15 09:22 175 1 gusting 6 23.9
2019-Jul-15 09:17 150 0 gusting 7 23.9
2019-Jul-15 09:12 191 2 gusting 7 23.3
2019-Jul-15 09:07 174 1 gusting 4 23.3
2019-Jul-15 09:02 194 0 gusting 4 23.3
2019-Jul-15 08:57 232 22.8
2019-Jul-15 08:52 218 0 gusting 5 22.8
2019-Jul-15 08:47 210 1 gusting 5 22.2
2019-Jul-15 08:42 182 1 gusting 5 22.2
2019-Jul-15 08:37 201 1 gusting 5 22.2
2019-Jul-15 08:32 175 1 gusting 4 22.2
2019-Jul-15 08:27 197 1 gusting 4 21.7
2019-Jul-15 08:22 157 0 gusting 5 21.7
2019-Jul-15 08:17 211 0 gusting 5 21.7
2019-Jul-15 08:12 228 0 gusting 5 21.7
2019-Jul-15 08:07 231 0 gusting 5 21.7
2019-Jul-15 08:02 236 1 gusting 5 21.7
2019-Jul-15 07:57 251 1 gusting 5 21.7
2019-Jul-15 07:52 224 1 gusting 5 21.7
2019-Jul-15 07:47 168 1 gusting 5 21.1
2019-Jul-15 07:42 179 1 gusting 4 21.1
2019-Jul-15 07:37 200 0 gusting 4 21.1
2019-Jul-15 07:32 193 1 gusting 4 21.1
2019-Jul-15 07:27 223 1 gusting 4 21.1
2019-Jul-15 07:22 225 1 gusting 4 21.1
2019-Jul-15 07:17 229 0 gusting 5 21.1
2019-Jul-15 07:12 225 0 gusting 5 21.1
2019-Jul-15 07:07 228 1 gusting 5 20.6
2019-Jul-15 07:02 223 0 gusting 4 20.6
2019-Jul-15 06:57 225 1 gusting 5 20.6
2019-Jul-15 06:52 221 2 gusting 5 20.6
2019-Jul-15 06:47 204 2 gusting 5 20.6
2019-Jul-15 06:42 208 2 gusting 6 20.6
2019-Jul-15 06:37 221 2 gusting 6 20.6
2019-Jul-15 06:32 209 2 gusting 6 20.6
2019-Jul-15 06:27 199 2 gusting 4 20.6
2019-Jul-15 06:22 220 1 gusting 4 20.6
2019-Jul-15 06:17 229 1 gusting 4 20.6
2019-Jul-15 06:12 209 1 gusting 5 20.6
2019-Jul-15 06:07 209 0 gusting 5 20.6
2019-Jul-15 06:02 216 0 gusting 5 20.6
2019-Jul-15 05:57 218 1 gusting 6 20.6
2019-Jul-15 05:52 211 2 gusting 6 20.6
2019-Jul-15 05:47 214 2 gusting 8 20.6
2019-Jul-15 05:42 225 2 gusting 8 20.6
2019-Jul-15 05:37 223 3 gusting 7 20.6
2019-Jul-15 05:32 207 4 gusting 7 20.6
2019-Jul-15 05:27 196 3 gusting 7 20.6
2019-Jul-15 05:22 229 3 gusting 8 20.6
2019-Jul-15 05:17 216 3 gusting 8 20.6
2019-Jul-15 05:12 192 4 gusting 6 20.6
2019-Jul-15 05:07 155 2 gusting 6 20.6
2019-Jul-15 05:02 195 1 gusting 6 20.6
2019-Jul-15 04:57 205 2 gusting 6 20.6
2019-Jul-15 04:52 174 1 gusting 4 20.6
2019-Jul-15 04:47 187 1 gusting 4 20.6
2019-Jul-15 04:42 187 1 gusting 6 20.6
2019-Jul-15 04:37 194 2 gusting 11 20.6
2019-Jul-15 04:32 181 3 gusting 11 20.6
2019-Jul-15 04:27 205 4 gusting 9 20.6
2019-Jul-15 04:22 182 2 gusting 6 20.6
2019-Jul-15 04:17 184 1 gusting 6 20.6
2019-Jul-15 04:12 176 1 gusting 6 20.6
2019-Jul-15 04:07 175 2 gusting 7 20.6
2019-Jul-15 04:02 191 3 gusting 7 20.6
2019-Jul-15 03:57 192 3 gusting 7 20.6
2019-Jul-15 03:52 169 3 gusting 7 20.6
2019-Jul-15 03:47 164 3 gusting 7 20.6
2019-Jul-15 03:42 184 4 gusting 7 20.6
2019-Jul-15 03:37 171 3 gusting 7 20.6
2019-Jul-15 03:32 179 2 gusting 5 20.6
2019-Jul-15 03:27 169 2 gusting 5 20.6
2019-Jul-15 03:22 168 1 gusting 6 20.6
2019-Jul-15 03:17 173 1 gusting 6 20.6
2019-Jul-15 03:12 178 2 gusting 7 20.6
2019-Jul-15 03:07 175 3 gusting 7 20.6
2019-Jul-15 03:02 159 3 gusting 6 21.1
2019-Jul-15 02:57 157 2 gusting 6 21.1
2019-Jul-15 02:52 174 2 gusting 6 21.1
2019-Jul-15 02:47 181 2 gusting 5 21.1
2019-Jul-15 02:42 183 2 gusting 6 21.1
2019-Jul-15 02:37 151 2 gusting 6 21.1
2019-Jul-15 02:32 157 2 gusting 6 21.1
2019-Jul-15 02:27 170 1 gusting 5 21.1
2019-Jul-15 02:22 171 1 gusting 5 21.1
2019-Jul-15 02:17 170 2 gusting 6 21.1
2019-Jul-15 02:12 169 3 gusting 6 21.1
2019-Jul-15 02:07 175 3 gusting 6 21.1
2019-Jul-15 02:02 159 2 gusting 6 21.1
2019-Jul-15 01:57 151 1 gusting 5 21.7
2019-Jul-15 01:52 167 1 gusting 5 21.7
2019-Jul-15 01:47 167 0 gusting 5 21.7
2019-Jul-15 01:42 169 0 gusting 5 21.7
2019-Jul-15 01:37 169 0 gusting 5 21.7
2019-Jul-15 01:32 166 21.7
2019-Jul-15 01:27 213 21.7
2019-Jul-15 01:22 213 21.7
2019-Jul-15 01:17 213 0 gusting 4 21.7
2019-Jul-15 01:12 213 1 gusting 3 21.7
2019-Jul-15 01:07 217 0 gusting 3 21.7
2019-Jul-15 01:02 202 0 gusting 4 21.7
2019-Jul-15 00:57 211 0 gusting 4 21.7
2019-Jul-15 00:52 202 0 gusting 4 21.7
2019-Jul-15 00:47 197 21.7
2019-Jul-15 00:42 207 21.7
2019-Jul-15 00:37 211 0 gusting 5 21.7
2019-Jul-15 00:32 211 1 gusting 6 21.7
2019-Jul-15 00:27 220 2 gusting 6 21.7
2019-Jul-15 00:22 198 2 gusting 7 21.7
2019-Jul-15 00:17 202 3 gusting 7 21.7
2019-Jul-15 00:12 180 2 gusting 7 21.7
2019-Jul-15 00:07 206 2 gusting 6 21.7
2019-Jul-15 00:02 196 2 gusting 6 21.7
2019-Jul-14 23:57 196 2 gusting 7 21.7
2019-Jul-14 23:52 186 2 gusting 7 21.7
2019-Jul-14 23:47 207 3 gusting 7 21.7
2019-Jul-14 23:42 193 2 gusting 6 21.7
2019-Jul-14 23:37 163 3 gusting 6 22.2
2019-Jul-14 23:32 189 2 gusting 6 22.2
2019-Jul-14 23:27 204 2 gusting 6 22.2
2019-Jul-14 23:22 200 2 gusting 6 22.2
2019-Jul-14 23:17 195 1 gusting 6 22.2
2019-Jul-14 23:12 194 1 gusting 6 22.2
2019-Jul-14 23:07 182 1 gusting 6 22.2
2019-Jul-14 23:02 192 2 gusting 10 22.2
2019-Jul-14 22:57 186 3 gusting 10 22.2
2019-Jul-14 22:52 196 3 gusting 10 22.2
2019-Jul-14 22:47 200 2 gusting 8 22.2
2019-Jul-14 22:42 200 2 gusting 8 22.2
2019-Jul-14 22:37 190 2 gusting 8 22.2
2019-Jul-14 22:32 190 3 gusting 9 22.2
2019-Jul-14 22:27 184 3 gusting 9 22.8
2019-Jul-14 22:22 168 4 gusting 9 22.8
2019-Jul-14 22:17 172 5 gusting 9 22.8
2019-Jul-14 22:12 165 5 gusting 10 22.8
2019-Jul-14 22:07 162 5 gusting 13 22.8
2019-Jul-14 22:02 173 5 gusting 13 23.3
2019-Jul-14 21:57 198 5 gusting 13 23.3
2019-Jul-14 21:52 196 4 gusting 12 23.3
2019-Jul-14 21:47 202 4 gusting 12 23.3
2019-Jul-14 21:42 223 4 gusting 11 23.3
2019-Jul-14 21:37 193 5 gusting 12 23.3
2019-Jul-14 21:32 171 6 gusting 12 23.3
2019-Jul-14 21:27 201 6 gusting 12 23.9
2019-Jul-14 21:22 180 5 gusting 9 23.9
2019-Jul-14 21:17 202 4 gusting 9 23.9
2019-Jul-14 21:12 171 3 gusting 12 24.4
2019-Jul-14 21:07 205 5 gusting 12 24.4
2019-Jul-14 21:02 220 6 gusting 11 24.4
2019-Jul-14 20:57 175 6 gusting 11 24.4
2019-Jul-14 20:52 139 5 gusting 13 24.4
2019-Jul-14 20:47 161 6 gusting 13 25.0
2019-Jul-14 20:42 178 6 gusting 13 25.0
2019-Jul-14 20:37 197 6 gusting 12 25.0
2019-Jul-14 20:32 175 6 gusting 11 25.6
2019-Jul-14 20:27 194 6 gusting 11 25.6
2019-Jul-14 20:22 184 6 gusting 13 25.6
2019-Jul-14 20:17 176 6 gusting 13 26.1
2019-Jul-14 20:12 192 4 gusting 10 26.1
2019-Jul-14 20:07 179 3 gusting 12 26.7
2019-Jul-14 20:02 197 5 gusting 12 26.7
2019-Jul-14 19:57 190 6 gusting 10 26.7
2019-Jul-14 19:52 182 4 gusting 9 26.7
2019-Jul-14 19:47 148 4 gusting 11 27.2
2019-Jul-14 19:42 193 5 gusting 12 27.2
2019-Jul-14 19:37 159 5 gusting 12 27.2
2019-Jul-14 19:32 190 5 gusting 12 27.8
2019-Jul-14 19:27 202 6 gusting 11 27.8
2019-Jul-14 19:22 184 5 gusting 11 27.8
2019-Jul-14 19:17 187 5 gusting 12 28.3
2019-Jul-14 19:12 185 5 gusting 12 28.3
2019-Jul-14 19:07 180 4 gusting 10 28.3
2019-Jul-14 19:02 171 3 gusting 10 28.9
2019-Jul-14 18:57 195 4 gusting 10 28.9
2019-Jul-14 18:52 207 4 gusting 10 28.9
2019-Jul-14 18:47 213 3 gusting 9 28.9
2019-Jul-14 18:42 187 3 gusting 11 29.4
2019-Jul-14 18:37 183 3 gusting 13 29.4
2019-Jul-14 18:32 207 5 gusting 13 29.4
2019-Jul-14 18:27 175 5 gusting 13 29.4
2019-Jul-14 18:22 207 5 gusting 14 30.0
2019-Jul-14 18:17 149 7 gusting 14 30.0
2019-Jul-14 18:12 223 8 gusting 13 30.0
2019-Jul-14 18:07 209 7 gusting 15 30.6
2019-Jul-14 18:02 221 7 gusting 15 30.6
2019-Jul-14 17:57 186 8 gusting 17 30.6
2019-Jul-14 17:52 208 8 gusting 17 30.6
2019-Jul-14 17:47 193 9 gusting 17 30.6
2019-Jul-14 17:42 191 9 gusting 17 31.1
2019-Jul-14 17:37 205 9 gusting 18 31.1
2019-Jul-14 17:32 225 9 gusting 18 31.7
2019-Jul-14 17:27 211 8 gusting 18 31.7
2019-Jul-14 17:22 207 8 gusting 19 31.7
2019-Jul-14 17:17 209 10 gusting 19 31.7
2019-Jul-14 17:12 194 10 gusting 19 32.2
2019-Jul-14 17:07 201 10 gusting 20 32.2
2019-Jul-14 17:02 200 10 gusting 20 31.7
2019-Jul-14 16:57 207 10 gusting 20 31.7
2019-Jul-14 16:52 200 11 gusting 20 31.7
2019-Jul-14 16:47 186 10 gusting 20 31.7
2019-Jul-14 16:42 200 10 gusting 20 31.7
2019-Jul-14 16:37 231 11 gusting 19 31.7
2019-Jul-14 16:32 186 11 gusting 19 31.7
2019-Jul-14 16:27 198 10 gusting 19 31.7
2019-Jul-14 16:22 190 10 gusting 19 32.2
2019-Jul-14 16:17 154 9 gusting 18 32.2
2019-Jul-14 16:12 176 9 gusting 20 31.7
2019-Jul-14 16:07 159 10 gusting 21 31.7
2019-Jul-14 16:02 160 11 gusting 21 31.7
2019-Jul-14 15:57 147 11 gusting 21 31.7
2019-Jul-14 15:52 178 10 gusting 19 31.7
2019-Jul-14 15:47 153 10 gusting 20 31.7
2019-Jul-14 15:42 169 11 gusting 20 31.7
2019-Jul-14 15:37 122 11 gusting 19 31.7
2019-Jul-14 15:32 142 10 gusting 19 31.7
2019-Jul-14 15:27 120 9 gusting 19 31.7
2019-Jul-14 15:22 137 9 gusting 19 31.7
2019-Jul-14 15:17 148 11 gusting 20 31.7
2019-Jul-14 15:12 138 11 gusting 20 31.7
2019-Jul-14 15:07 160 10 gusting 19 31.7
2019-Jul-14 15:02 151 10 gusting 19 31.7
2019-Jul-14 14:57 174 10 gusting 17 31.7
2019-Jul-14 14:52 138 10 gusting 17 31.1
2019-Jul-14 14:47 144 10 gusting 18 31.7
2019-Jul-14 14:42 136 9 gusting 18 31.7
2019-Jul-14 14:37 143 8 gusting 18 31.1
2019-Jul-14 14:32 148 7 gusting 16 31.1
2019-Jul-14 14:27 144 9 gusting 16 30.6
2019-Jul-14 14:22 140 9 gusting 16 30.6
2019-Jul-14 14:17 183 8 gusting 16 30.6
2019-Jul-14 14:12 180 9 gusting 17 30.6
2019-Jul-14 14:07 156 9 gusting 18 30.6
2019-Jul-14 14:02 137 10 gusting 18 30.6
2019-Jul-14 13:57 156 9 gusting 17 30.6
2019-Jul-14 13:52 124 7 gusting 17 30.6
2019-Jul-14 13:47 174 6 gusting 17 30.6
2019-Jul-14 13:42 199 6 gusting 13 30.6
2019-Jul-14 13:37 139 6 gusting 13 30.6
2019-Jul-14 13:32 123 6 gusting 13 30.6
2019-Jul-14 13:27 192 6 gusting 11 30.6
2019-Jul-14 13:22 182 6 gusting 11 30.6
2019-Jul-14 13:17 235 6 gusting 14 30.0
2019-Jul-14 13:12 153 6 gusting 15 30.0
2019-Jul-14 13:07 154 8 gusting 15 30.0
2019-Jul-14 13:02 200 9 gusting 15 30.0
2019-Jul-14 12:57 155 6 gusting 15 30.0
2019-Jul-14 12:52 193 5 gusting 12 30.0
2019-Jul-14 12:47 222 6 gusting 12 30.0
2019-Jul-14 12:42 177 6 gusting 13 29.4
2019-Jul-14 12:37 157 6 gusting 15 30.0
2019-Jul-14 12:32 182 7 gusting 15 30.0
2019-Jul-14 12:27 186 7 gusting 15 29.4
2019-Jul-14 12:22 131 6 gusting 15 29.4
2019-Jul-14 12:17 171 5 gusting 15 29.4
2019-Jul-14 12:12 207 4 gusting 8 29.4
2019-Jul-14 12:07 144 3 gusting 8 29.4
2019-Jul-14 12:02 223 2 gusting 10 29.4
2019-Jul-14 11:57 177 3 gusting 13 29.4
2019-Jul-14 11:52 226 4 gusting 13 28.9
2019-Jul-14 11:47 267 3 gusting 10 28.9
2019-Jul-14 11:42 169 3 gusting 10 28.9
2019-Jul-14 11:37 204 5 gusting 10 28.9
2019-Jul-14 11:32 157 3 gusting 8 28.9
2019-Jul-14 11:27 209 3 gusting 11 28.3
2019-Jul-14 11:22 200 4 gusting 11 28.3
2019-Jul-14 11:17 205 4 gusting 11 28.3
2019-Jul-14 11:12 206 4 gusting 9 28.3
2019-Jul-14 11:07 224 3 gusting 9 27.8
2019-Jul-14 11:02 267 2 gusting 9 27.8
2019-Jul-14 10:57 265 3 gusting 9 27.8
2019-Jul-14 10:52 186 3 gusting 10 27.8
2019-Jul-14 10:47 258 4 gusting 10 27.8
2019-Jul-14 10:42 248 3 gusting 10 27.8
2019-Jul-14 10:37 233 2 gusting 7 27.8
2019-Jul-14 10:32 223 1 gusting 6 27.8
2019-Jul-14 10:27 212 0 gusting 6 27.8
2019-Jul-14 10:22 215 1 gusting 6 27.2
2019-Jul-14 10:17 263 1 gusting 6 27.2
2019-Jul-14 10:12 230 1 gusting 6 26.7
2019-Jul-14 10:07 240 1 gusting 6 26.7
2019-Jul-14 10:02 229 2 gusting 9 26.1
2019-Jul-14 09:57 171 3 gusting 9 26.1
2019-Jul-14 09:52 119 4 gusting 9 25.6
2019-Jul-14 09:47 132 3 gusting 6 25.6
2019-Jul-14 09:42 094 2 gusting 6 25.6
2019-Jul-14 09:37 126 2 gusting 6 25.6
2019-Jul-14 09:32 139 0 gusting 4 25.6
2019-Jul-14 09:27 077 0 gusting 4 25.0
2019-Jul-14 09:22 180 1 gusting 4 24.4
2019-Jul-14 09:17 080 1 gusting 6 24.4
2019-Jul-14 09:12 087 2 gusting 6 24.4
2019-Jul-14 09:07 082 2 gusting 6 24.4
2019-Jul-14 09:02 138 1 gusting 5 24.4
2019-Jul-14 08:57 118 0 gusting 5 24.4
2019-Jul-14 08:52 090 0 gusting 4 23.9
2019-Jul-14 08:47 192 0 gusting 4 23.9
2019-Jul-14 08:42 130 0 gusting 4 23.3
2019-Jul-14 08:37 149 0 gusting 4 23.3
2019-Jul-14 08:32 167 0 gusting 4 23.3
2019-Jul-14 08:27 161 0 gusting 3 22.8
2019-Jul-14 08:22 078 0 gusting 3 22.8
2019-Jul-14 08:17 078 0 gusting 3 22.8
2019-Jul-14 08:12 078 0 gusting 3 22.8
2019-Jul-14 08:07 078 0 gusting 3 22.2
2019-Jul-14 08:02 090 0 gusting 4 22.2
2019-Jul-14 07:57 087 1 gusting 4 22.2
2019-Jul-14 07:52 077 1 gusting 4 22.2
2019-Jul-14 07:47 078 0 gusting 3 22.2
2019-Jul-14 07:42 046 22.2
2019-Jul-14 07:37 050 22.2
2019-Jul-14 07:32 050 21.7
2019-Jul-14 07:27 050 21.7
2019-Jul-14 07:22 050 21.7
2019-Jul-14 07:17 050 21.7
2019-Jul-14 07:12 050 21.1
2019-Jul-14 07:07 050 21.1
2019-Jul-14 07:02 050 20.6
2019-Jul-14 06:57 050 20.6
2019-Jul-14 06:52 050 20.6
2019-Jul-14 06:47 319 20.6
2019-Jul-14 06:42 315 20.6
2019-Jul-14 06:37 315 20.0
2019-Jul-14 06:32 315 20.0
2019-Jul-14 06:27 315 20.0
2019-Jul-14 06:22 312 19.4
2019-Jul-14 06:17 312 19.4
2019-Jul-14 06:12 312 19.4
2019-Jul-14 06:07 312 19.4
2019-Jul-14 06:02 312 19.4
2019-Jul-14 05:57 312 19.4
2019-Jul-14 05:52 312 19.4
2019-Jul-14 05:47 312 18.9
2019-Jul-14 05:42 312 18.9
2019-Jul-14 05:37 312 18.9
2019-Jul-14 05:32 312 18.9
2019-Jul-14 05:27 312 18.9
2019-Jul-14 05:22 312 18.9
2019-Jul-14 05:17 314 18.9
2019-Jul-14 05:12 314 19.4
2019-Jul-14 05:07 315 19.4
2019-Jul-14 05:02 315 19.4